Regional Weather Roundup
Issued by NWS

Home | Current Version | Previous Version | Graphics & Text | Print | Product List | Glossary Off
Versions: 1 2 3 4 5 6 7 8 9 10 11 12 13 14 15 16 17 18 19 20 21 22 23 24 25 26 27 28 29 30 31 32 33 34 35 36 37 38 39 40 41 42 43 44 45 46 47 48 49 50

000
ASUS43 KMKX 271621
RWRWI

WISCONSIN REGIONAL WEATHER ROUNDUP
NATIONAL WEATHER SERVICE MILWAUKEE/SULLIVAN WI
1100 AM CDT MON APR 27 2015

NOTE: "FAIR" INDICATES FEW OR NO CLOUDS BELOW 12,000 FEET WITH NO
SIGNIFICANT WEATHER AND/OR OBSTRUCTIONS TO VISIBILITY.

WIZ001-002-006>008-014>016-023>028-271700-
NORTHWEST WISCONSIN

CITY           SKY/WX    TMP DP  RH WIND       PRES   REMARKS
SUPERIOR ARPT  SUNNY     55  28  35 E8        30.24S
ASHLAND        SUNNY     55  31  39 NE9       30.24S
HAYWARD        SUNNY     57  28  33 VRB6      30.21F
SIREN          SUNNY     58  26  28 N3        30.24R
CUMBERLAND     SUNNY     54  27  35 N9        30.23S
RICE LAKE      SUNNY     56  29  35 N3        30.24S
CHETEK         SUNNY     56  32  40 NW6       30.22S
LADYSMITH      SUNNY     57  30  36 N10G16    30.21S
EAU CLAIRE     SUNNY     58  30  34 VRB7      30.21F
MENOMONIE      SUNNY     57  29  34 W8        30.23S
NEW RICHMOND   SUNNY     58  25  27 NW6       30.24F
OSCEOLA        SUNNY     58  27  30 NW5       30.28S
$$

WIZ003>005-009-010-017-018-271700-
NORTH CENTRAL WISCONSIN

CITY           SKY/WX    TMP DP  RH WIND       PRES   REMARKS
MANITOWISH WTR SUNNY     53  29  41 NW9G16    30.18S
ARBOR VITAE    SUNNY     56  31  38 N20       30.16S
WOODRUFF       SUNNY     56  31  38 N20       30.16S
RHINELANDER    SUNNY     54  29  38 VRB7      30.15F
EAGLE RIVER    SUNNY     54  25  32 N15G21    30.15R
LAND O LAKES   SUNNY     53  28  38 N12G20    30.16S
PHILLIPS       SUNNY     55  30  38 N9        30.17F
TOMAHAWK       SUNNY     55  29  37 N6        30.16F
MEDFORD        SUNNY     55  31  40 N13       30.17S
MERRILL        SUNNY     55  31  39 N10       30.15S
$$

WIZ029-030-035-036-043>047-271700-
CENTRAL WISCONSIN

CITY           SKY/WX    TMP DP  RH WIND       PRES   REMARKS
WAUSAU         SUNNY     56  29  35 N9        30.13F
MOSINEE        SUNNY     54  30  40 N12       30.16S
MARSHFIELD     SUNNY     57  32  38 NW12      30.17S
STEVENS POINT  SUNNY     54  29  38 W8        30.16S
WAUPACA        SUNNY     59  29  32 N9        30.15S
WAUTOMA        SUNNY     57  29  34 NW9       30.15F
WISC RAPIDS    SUNNY     57  28  33 N12       30.18S
CAMP DOUGLAS   SUNNY     57  32  38 W10       30.17F
$$

WIZ011>013-019>022-031-037>040-048>050-271700-
NORTHEAST WISCONSIN

CITY           SKY/WX    TMP DP  RH WIND       PRES   REMARKS
ANTIGO         SUNNY     54  32  43 N16       30.14S
SHAWANO        SUNNY     57  32  39 N9        30.14R
OCONTO         SUNNY     54  33  45 N15G21    30.11F
STURGEON BAY   SUNNY     48  34  57 N17       30.15S
GREEN BAY      SUNNY     54  36  50 NE13      30.14R
MANITOWOC      MOSUNNY   52  35  52 NE10      30.13R
APPLETON       MOSUNNY   52  32  46 N12       30.14R
CLINTONVILLE   SUNNY     55  28  35 N8G18     30.13S
OSHKOSH        SUNNY     55  34  45 N9G21     30.14R
$$

WIZ032>034-041-042-053>061-271700-
SOUTHWEST WISCONSIN

CITY           SKY/WX    TMP DP  RH WIND       PRES   REMARKS
LA CROSSE      SUNNY     56  31  38 NW6       30.21F
SPARTA         SUNNY     56  29  34 N5        30.20F
VIROQUA        SUNNY     54  32  43 W7        30.19F
BOSCOBEL       SUNNY     58  30  34 MISG      30.19F
PRAIRIE DU CHI SUNNY     55  30  38 N5        30.19F
PLATTEVILLE    SUNNY     54  33  44 NW12      30.18F
$$

WIZ056-057-062-063-064-067-068-271700-
SOUTH CENTRAL WISCONSIN

CITY           SKY/WX    TMP DP  RH WIND       PRES   REMARKS
REEDSBURG      SUNNY     55  32  42 N8        30.17S
BARABOO/DELLS  SUNNY     56  29  36 N9        30.16F
LONE ROCK        N/A     57  32  38 N7        30.17F
MINERAL POINT  SUNNY     55  28  35 N9        30.17F
MADISON        MOSUNNY   56  32  40 N10       30.16S
MIDDLETON      SUNNY     57  30  36 N9G18     30.16F
WATERTOWN      SUNNY     54  34  47 N6        30.14S
MONROE         SUNNY     54  32  43 N8G18     30.15F
JANESVILLE     SUNNY     55  30  38 NW7       30.14F
$$

WIZ051-052-058>065-066-070>072-271700-
SOUTHEAST WISCONSIN

CITY           SKY/WX    TMP DP  RH WIND       PRES   REMARKS
MILWAUKEE      MOSUNNY   50  33  52 NE13      30.14S
WAUKESHA       MOSUNNY   52  34  50 N14G23    30.14R
MILWAUKEE/TIMM MOSUNNY   54  30  40 N14G22    30.13S
RACINE         SUNNY     50  33  52 N10       30.16R
BURLINGTON     MOSUNNY   50  32  49 N8G17     30.13F
KENOSHA        MOSUNNY   53  35  50 N9        30.13S
FOND DU LAC    SUNNY     53  33  46 E5        30.15R
SHEBOYGAN      CLOUDY    53  34  48 N20G26    30.12R
WEST BEND      MOSUNNY   52  32  46 NW13      30.13R
JUNEAU         SUNNY     53  33  47 NW8G16    30.15S
$$

LSZ147-162-271700-
LAKE SUPERIOR

STATION/POSITION TIME  TEMP    WIND        PRES    WAVE
                       AIR SEA DIR/SP/G            HT/PER
                 (UTC) (F)     (DEG/KT/KT) (MB)    (FT/S)
W MID LAKE BUOY  1550   37 35  220/  2/  4 1025.3R   0
DEVILS ISLAND    1600   40     260/  3/  5 1024.7F
PORT WING        1540   39     310/  5/  6 1024.4S
SAXON HARBOR     1540   42        CALM     1023.7S
$$

LMZ867-665-643>646-271700-
LAKE MICHIGAN

STATION/POSITION TIME  TEMP    WIND        PRES    WAVE
                       AIR SEA DIR/SP/G            HT/PER
                 (UTC) (F)     (DEG/KT/KT) (MB)    (FT/S)
CHAMBERS ISLAND  1500   43      20/  5/  6 1021.0R
NORTHPORT PIER   1500   40     320/  7/ 10 1020.3S
SISTER BAY       1517   45     360/ 11/ 14   N/A
KEWAUNEE LAKESHO 1518   45      50/ 10/ 12 1019.4R
SHEBOYGAN LAKESH 1600   42      40/ 13/ 14 1021.2R
PORT WASHINGTON  1500   48      50/  8/ 11 1020.7R
MILWAUKEE LAKESH 1600   43      40/  6/  7   N/A
KENOSHA   LAKESH 1600   45      30/ 15/ 17 1020.7R
$$

TC  - TEMPERATURE IN CELSIUS
VSB - VISIBILITY IN STATUTE MILES
WCI - WIND CHILL INDEX
HX  - HEAT INDEX



USA.gov is the U.S. government's official web portal to all federal, state and local government web resources and services.